Hourly Data Report for July 08, 2021

DRYDEN REGIONAL
ONTARIO
Current Station Operator: NAVCAN

49°49'39.000" N
92°44'39.000" W
412.70 m
6032125
71527
YHD

Download Data

Hourly Data (July 2021)
Hourly Data Report for July 8, 2021
TIME
LST
Temp Definition
°C
Dew Point Definition
°C
Rel Hum Definition
%
Precip. Amount Definition
mm

Wind Dir Definition
10's deg

Wind Spd Definition
km/h
Visibility Definition
km
Stn Press Definition
kPa
Hmdx Definition


Wind Chill Definition


Weather Definition


00:00 13.9 3.6 50 0.0 14 13 16.1 96.82     LegendNANA
01:00 13.4 3.5 51 0.0 14 15 16.1 96.79     LegendNANA
02:00 12.8 5.8 62 0.0 16 15 16.1 96.80     LegendNANA
03:00 12.0 6.9 71 0.0 17 13 16.1 96.84     LegendNANA
04:00 11.1 7.5 78 0.0 17 13 16.1 96.81     LegendNANA
05:00 10.5 8.1 85 0.0 18 11 16.1 96.80     LegendNANA
06:00 11.9 8.8 81 0.0 17 5 16.1 96.84     LegendNANA
07:00 14.1 9.9 76 0.0 15 9 16.1 96.81     LegendNANA
08:00 16.0 10.1 68 0.0 14 5 16.1 96.81     LegendNANA
09:00 17.9 9.6 58 0.0 19 9 16.1 96.82     LegendNANA
10:00 20.2 4.2 35 0.0 23 8 16.1 96.80     LegendNANA
11:00 21.2 4.8 34 0.0 LegendMM 8 16.1 96.76     LegendNANA
12:00 21.9 4.9 33 0.0 LegendMM 9 16.1 96.73     LegendNANA
13:00 22.5 5.2 32 0.0 LegendMM 5 16.1 96.69     LegendNANA
14:00 23.2 5.2 31 0.0 LegendMM 13 16.1 96.67     LegendNANA
15:00 23.4 6.2 33 0.0 LegendMM 5 16.1 96.66     LegendNANA
16:00 23.4 3.6 27 0.0 33 8 16.1 96.63     LegendNANA
17:00 23.3 5.3 31 0.0   0 16.1 96.61     LegendNANA
18:00 23.5 6.1 32 0.0 29 8 16.1 96.60     LegendNANA
19:00 22.7 6.2 34 0.0 28 9 16.1 96.59     LegendNANA
20:00 20.2 8.3 46 0.0 25 8 16.1 96.60     LegendNANA
21:00 18.5 8.9 53 0.0 25 8 16.1 96.64     LegendNANA
22:00 17.5 9.2 58 0.0 26 8 16.1 96.66     LegendNANA
23:00 16.3 9.2 63 0.0 29 5 16.1 96.69     LegendNANA

Notes on Data Quality.

Legend

  • E = Estimated
  • M = Missing
  • NA = Not Available*
  • [empty] = Indicates an unobserved value
Date modified: